This demonstration page uses our WeatherBlox Daily Observations layout. Learn more.

Left ArrowRight Arrow

39.92423, -83.80882

Hourly Observations for March 21, 2017

Temp ( °F °C ) Dew Point ( °F °C ) Humidity (%) Winds ( mph kmh ) Pressure ( in mb ) Visibility ( mi km ) Precip ( " mm )
12:20 am 00:20 Cloudy with Mist and Fog 43 6 43 6 100 100 S 5 7 30.03 1017 2.5 4.02335 0 0.0254
12:56 am 00:56 Cloudy with Mist and Fog 43 6.1 43 6.1 100 100 S 5 7 30 1016 2.5 4.02335 0 0.0254
1:23 am 01:23 Cloudy with Mist and Fog 45 7 43 6 93 93 SSW 5 7 30 1016 2.5 4.02335 0 0
1:40 am 01:40 Cloudy with Mist and Fog 45 7 43 6 93 93 Calm 30 1016 2 3.21868 0 0
1:52 am 01:52 Cloudy with Mist and Fog 45 7 43 6 93 93 NNW 5 7 30.03 1017 1.25 2.011675 0 0
1:56 am 01:56 Cloudy with Mist and Fog 44 6.7 44 6.7 100 100 NNW 5 7 30 1016 0.75 1.207005 0 0
2:05 am 02:05 Cloudy with Mist and Fog 45 7 43 6 93 93 NNW 5 7 30.03 1017 1.25 2.011675 0 0
2:16 am 02:16 Cloudy with Mist and Fog 45 7 45 7 100 100 Calm 30 1016 0.75 1.207005 0 0
2:26 am 02:26 Cloudy with Fog 45 7 45 7 100 100 Calm 30 1016 0.5 0.80467 0 0
2:56 am 02:56 Cloudy with Fog 44 6.7 44 6.7 100 100 WNW 3 6 30.02 1017 0.5 0.80467 0 0
3:12 am 03:12 Cloudy with Fog 45 7 45 7 100 100 Calm 30.03 1017 0.25 0.402335 0 0
3:56 am 03:56 Cloudy with Fog 45 7.2 45 7.2 100 100 NW 5 7 30.01 1016 0.25 0.402335 0 0
4:54 am 04:54 Cloudy with Fog 45 7 45 7 100 100 NNW 5 7 30.03 1017 0.5 0.80467 0 0
4:56 am 04:56 Cloudy with Fog 45 7.2 45 7.2 100 100 NNW 5 7 30.02 1017 0.5 0.80467 0 0
5:22 am 05:22 Cloudy with Mist and Fog 45 7 45 7 100 100 N 6 9 30.03 1017 1.25 2.011675 0 0
5:37 am 05:37 Cloudy with Mist and Fog 45 7 45 7 100 100 N 9 15 30.06 1018 2 3.21868 0 0
5:56 am 05:56 Cloudy with Mist and Fog 44 6.7 44 6.7 100 100 N 8 13 30.04 1017 2.5 4.02335 0 0
6:12 am 06:12 Cloudy with Mist and Fog 43 6 43 6 100 100 N 12 19 30.06 1018 4 6.43736 0 0
6:31 am 06:31 Cloudy with Mist and Fog 43 6 43 6 100 100 N 15 24 30.06 1018 2.5 4.02335 0 0
6:40 am 06:40 Cloudy with Mist and Fog 43 6 43 6 100 100 N 13 20 30.06 1018 6 9.65604 0 0
6:53 am 06:53 Cloudy 43 6 41 5 93 93 N 9 15 30.09 1019 7 11.26538 0 0
6:56 am 06:56 Cloudy 42 5.6 41 5 96 96 N 7 11 30.07 1018 7 11.26538 0 0
7:20 am 07:20 Cloudy 43 6 41 5 93 93 N 9 15 30.09 1019 7 11.26538 0 0
7:56 am 07:56 Cloudy with Mist and Fog 42 5.6 41 5 96 96 N 8 13 30.08 1019 5 8.0467 0 0
8:56 am 08:56 Cloudy with Mist and Fog 42 5.6 40 4.4 92 92 NNE 12 19 30.11 1020 5 8.0467 0 0
9:56 am 09:56 Cloudy with Mist and Fog 42 5.6 40 4.4 92 92 N 8 13 30.13 1020 4 6.43736 0 0
10:56 am 10:56 Mostly Cloudy with Mist and Fog 46 7.8 42 5.6 86 86 NW 3 6 30.14 1021 4 6.43736 0 0
11:04 am 11:04 Partly Cloudy with Mist and Fog 46 8 43 6 87 87 N 6 9 30.15 1021 5 8.0467 0 0
11:21 am 11:21 Mostly Cloudy with Mist and Fog 46 8 43 6 87 87 NNW 5 7 30.15 1021 5 8.0467 0 0
11:36 am 11:36 Hazy 48 9 43 6 82 82 VRB 3 6 30.15 1021 6 9.65604 0 0
11:56 am 11:56 Hazy 50 10 44 6.7 80 80 NW 6 9 30.14 1021 5 8.0467 0 0
12:05 pm 12:05 Mostly Cloudy 50 10 43 6 76 76 NNW 8 13 30.15 1021 7 11.26538 0 0
12:43 pm 12:43 Partly Cloudy 52 11 45 7 77 77 NW 8 13 30.15 1021 7 11.26538 0 0
12:56 pm 12:56 Partly Cloudy 51 10.6 44 6.7 77 77 NW 6 9 30.13 1020 7 11.26538 0 0
1:17 pm 13:17 Mostly Cloudy 52 11 45 7 77 77 NW 7 11 30.15 1021 8 12.87472 0 0
1:56 pm 13:56 Mostly Cloudy 52 11.1 44 6.7 75 75 NNW 12 19 30.12 1020 7 11.26538 0 0
2:45 pm 14:45 Mostly Cloudy 52 11 45 7 77 77 NNW 6 9 30.09 1019 8 12.87472 0 0
2:56 pm 14:56 Mostly Cloudy 52 11.1 44 6.7 75 75 NW 7 11 30.09 1019 8 12.87472 0 0
3:56 pm 15:56 Cloudy 54 12.2 40 4.4 59 59 NW 7 11 30.09 1019 10 16.0934 0 0
4:56 pm 16:56 Mostly Cloudy 53 11.7 40 4.4 61 61 WNW 9 15 30.1 1019 10 16.0934 0 0
5:56 pm 17:56 Cloudy 53 11.7 40 4.4 61 61 WNW 7 11 30.11 1020 10 16.0934 0 0
6:56 pm 18:56 Cloudy with Light Rain 51 10.6 37 2.8 59 59 WNW 12 19 30.13 1020 10 16.0934 0 0.0254
7:56 pm 19:56 Cloudy 47 8.3 39 3.9 74 74 W 10 17 30.12 1020 10 16.0934 0 0.0254
8:56 pm 20:56 Cloudy 47 8.3 35 1.7 63 63 WNW 12 19 30.14 1021 10 16.0934 0 0
9:56 pm 21:56 Clear 44 6.7 29 -1.7 55 55 NW 13 20 30.17 1022 10 16.0934 0 0
10:56 pm 22:56 Clear 39 3.9 23 -5 53 53 NNW 17 28 30.19 1023 10 16.0934 0 0
11:56 pm 23:56 Clear 36 2.2 24 -4.4 62 62 NNW 15 24 30.21 1023 10 16.0934 0 0

Powered by AerisWeather